OSCAR 7 (AO-7) 1 07530U 74089B 26036.49725655 -.00000052 00000+0 -33787-4 0 9993 2 07530 101.9971 48.3418 0012269 23.7850 131.0240 12.53695625344015 PHASE 3B (AO-10) 1 14129U 83058B 26032.88008791 -.00000076 00000+0 00000+0 0 9997 2 14129 25.9660 242.3970 6057197 78.0086 340.2671 2.05871360292703 UOSAT 2 (UO-11) 1 14781U 84021B 26036.38141503 .00002927 00000+0 30627-3 0 9998 2 14781 97.7896 3.5938 0006021 258.1999 101.8544 14.90382706237497 LUSAT (LO-19) 1 20442U 90005G 26036.31712858 .00000214 00000+0 93128-4 0 9991 2 20442 98.8950 54.4267 0010773 229.4611 130.5635 14.34073987883495 EYESAT A (AO-27) 1 22825U 93061C 26036.12172876 .00000161 00000+0 78403-4 0 9992 2 22825 98.7052 103.4956 0009302 124.4758 235.7304 14.30901685688110 ITAMSAT (IO-26) 1 22826U 93061D 26036.41994392 .00000213 00000+0 97256-4 0 9995 2 22826 98.6999 103.6986 0009985 109.1423 251.0842 14.31325092688460 RADIO ROSTO (RS15) 1 23439U 94085A 26036.50139176 -.00000173 00000+0 -37008-2 0 9998 2 23439 64.8161 156.1889 0151509 28.1588 332.7427 11.27582734281054 JAS-2 (FO-29) 1 24278U 96046B 26036.41210759 -.00000007 00000+0 25469-4 0 9991 2 24278 98.5423 263.1915 0350861 78.3646 285.6647 13.53266544455348 TECHSAT 1B (GO-32) 1 25397U 98043D 26036.49792551 .00000124 00000+0 73719-4 0 9996 2 25397 98.9984 25.9921 0000699 182.8615 177.2559 14.24396686432585 ISS (ZARYA) 1 25544U 98067A 26036.24398336 .00012313 00000+0 23569-3 0 9992 2 25544 51.6316 232.7490 0011153 66.4623 293.7536 15.48407263551308 PCSAT (NO-44) 1 26931U 01043C 26036.49812971 .00000241 00000+0 12080-3 0 9997 2 26931 67.0487 224.8660 0007050 266.4056 93.6240 14.31893243271590 SAUDISAT 1C (SO-50) 1 27607U 02058C 26036.51246532 .00002725 00000+0 33951-3 0 9991 2 27607 64.5528 176.2755 0074364 286.4998 72.7946 14.82651790244937 CUTE-1 (CO-55) 1 27844U 03031E 26036.45857992 .00000482 00000+0 22802-3 0 9998 2 27844 98.6774 46.6604 0009153 202.2033 157.8751 14.24238310172927 CUBESAT XI-IV (CO-57) 1 27848U 03031J 26035.95980955 .00000380 00000+0 18611-3 0 9992 2 27848 98.6803 45.9868 0008713 223.0239 137.0259 14.23537045172567 MOZHAETS 4 (RS22) 1 27939U 03042A 26036.53272102 .00001280 00000+0 20684-3 0 9991 2 27939 98.3395 217.2066 0010851 331.6782 120.9162 14.73156540196168 CUBESAT XI-V 1 28895U 05043F 26036.36482417 .00002979 00000+0 48036-3 0 9996 2 28895 98.2776 189.3933 0013165 263.1093 96.8616 14.72171008 82354 CUTE-1.7+APD II (CO-65) 1 32785U 08021C 26036.46783649 .00009985 00000+0 65387-3 0 9992 2 32785 97.8165 15.3875 0011109 111.9820 248.2589 15.07892636965337 SEEDS II (CO-66) 1 32791U 08021J 26036.51228862 .00029913 00000+0 11062-2 0 9999 2 32791 97.7494 28.6503 0005457 70.6075 289.5753 15.27642087967153 YUBILEINY (RS30) 1 32953U 08025A 26036.51643863 .00000087 00000+0 55658-3 0 9996 2 32953 82.4990 77.3489 0018490 236.6247 123.3064 12.43175007803332 KKS-1 (KISEKI) 1 33499U 09002H 26036.47807344 .00002754 00000+0 34810-3 0 9999 2 33499 98.1189 316.8870 0008136 8.1681 351.9662 14.82697359916676 SWISSCUBE 1 35932U 09051B 26036.17850083 .00001882 00000+0 38386-3 0 9995 2 35932 98.4132 301.7404 0005548 264.7754 95.2813 14.62164011869868 BEESAT-1 1 35933U 09051C 26036.46358973 .00001608 00000+0 33440-3 0 9991 2 35933 98.4059 301.9352 0004078 281.8517 78.2226 14.61453351869940 ITUPSAT1 1 35935U 09051E 26036.20294784 .00001464 00000+0 31385-3 0 9990 2 35935 98.4149 300.9971 0006351 293.8082 66.2451 14.60193774869478 XIWANG-1 (HOPE-1) 1 36122U 09072B 26036.46125568 .00000226 00000+0 70866-3 0 9995 2 36122 100.3865 352.5005 0007472 170.1600 189.9661 13.16435288775677 O/OREOS (USA 219) 1 37224U 10062C 26036.03810498 .00004301 00000+0 41755-3 0 9999 2 37224 71.9719 19.5339 0016567 312.1554 47.8208 14.93067731 96915 JUGNU 1 37839U 11058B 26036.39877302 .00000558 00000+0 15210-3 0 9990 2 37839 19.9622 29.0619 0018765 61.4623 88.8924 14.13726456740354 SRMSAT 1 37841U 11058D 26036.45665490 .00000515 00000+0 13548-3 0 9998 2 37841 19.9710 136.7889 0011587 194.2567 244.9672 14.11535398739182 STRAND-1 1 39090U 13009E 26036.46684407 .00000530 00000+0 19289-3 0 9999 2 39090 98.3854 219.9648 0007580 264.1454 95.8869 14.37065174678144 ZACUBE-1 (TSHEPISOSAT) 1 39417U 13066B 26036.31273954 .00010711 00000+0 85247-3 0 9999 2 39417 97.8173 357.9847 0041005 331.8432 28.0573 14.99911337660956 GOMX-1 1 39430U 13066Q 26036.53902066 .00004051 00000+0 61466-3 0 9998 2 39430 97.6575 245.2471 0130469 139.8004 221.2942 14.68956293650582 CUBEBUG-2 (LO-74) 1 39440U 13066AA 26036.32127840 .00007118 00000+0 67341-3 0 9990 2 39440 97.8774 344.9656 0060675 104.0197 256.7778 14.92562552657312 FUNCUBE-1 (AO-73) 1 39444U 13066AE 26036.38369522 .00016111 00000+0 10556-2 0 9993 2 39444 97.8145 5.4027 0036117 293.3808 66.3621 15.07255774659792 UWE-3 1 39446U 13066AG 26036.35611385 .00009670 00000+0 84931-3 0 9990 2 39446 97.8558 351.7857 0051704 40.9138 319.5945 14.95753196657866 UNISAT-6 1 40012U 14033C 26036.38467831 .00006806 00000+0 74411-3 0 9994 2 40012 97.7671 191.6348 0046519 141.8709 218.5814 14.87363701626567 DUCHIFAT-1 1 40021U 14033M 26036.05195959 .00059277 00000+0 12084-2 0 9994 2 40021 98.0699 78.7287 0006076 178.7722 181.3541 15.46009571635221 QB50P1 1 40025U 14033R 26036.43690225 .00015622 00000+0 82050-3 0 9993 2 40025 98.0995 38.5648 0007932 327.8505 32.2241 15.15783971633056 LILACSAT-2 1 40908U 15049K 26036.50453200 .00026546 00000+0 52966-3 0 9999 2 40908 97.4853 68.6339 0008043 24.6024 335.5608 15.46799005575369 FOX-1A (AO-85) 1 40967U 15058D 26036.24599245 .00004706 00000+0 42825-3 0 9992 2 40967 64.7775 328.7481 0130450 108.7808 252.7508 14.90092880 93903 CAS-2T & KS-1Q 1 41847U 16066G 26036.21753267 .00002724 00000+0 39033-3 0 9998 2 41847 98.3948 113.4166 0343305 169.7009 191.1457 14.44349037485744 RADFXSAT (FOX-1B) 1 43017U 17073E 26036.06900093 .00012056 00000+0 54921-3 0 9994 2 43017 97.4898 266.0622 0159099 64.1463 297.6076 15.10127368445434 DIWATA-2B 1 43678U 18084H 26036.49966385 .00003876 00000+0 31829-3 0 9995 2 43678 98.1069 227.2130 0008363 227.2707 132.7811 14.99803388396472 ES'HAIL 2 1 43700U 18090A 26036.48967780 .00000000 00000+0 00000+0 0 9996 2 43700 0.0160 114.2577 0002414 248.1976 335.2420 1.00270430 26350 FOX-1CLIFF (AO-95) 1 43770U 18099N 26036.46937012 .00018805 00000+0 78797-3 0 9999 2 43770 97.4573 97.3791 0010654 92.5894 267.6563 15.23521216393140 ITASAT 1 43786U 18099AE 26036.39578651 .00011180 00000+0 56524-3 0 9991 2 43786 97.4233 90.5801 0014686 92.4686 267.8229 15.17121939392910 JY1SAT (JO-97) 1 43803U 18099AX 26036.43604794 .00026263 00000+0 93091-3 0 9992 2 43803 97.4321 99.1304 0006562 29.6933 330.4678 15.29054232393462 UWE-4 1 43880U 18111E 26036.22685774 .00043059 00000+0 11543-2 0 9999 2 43880 97.5867 319.3957 0012006 80.9759 279.2843 15.37789078390441 TIANYAN 01 1 44881U 19093C 26036.50553725 .00002320 00000+0 26943-3 0 9999 2 44881 97.7675 111.8962 0014126 154.4984 205.6931 14.86267283331858 RS-44 & BREEZE-KM R/B 1 44909U 19096E 26036.50653489 .00000015 00000+0 87456-5 0 9998 2 44909 82.5170 67.2110 0218636 92.2775 270.3376 12.79746770285504 SALSAT 1 46495U 20068K 26036.51556864 .00014509 00000+0 54075-3 0 9993 2 46495 97.8832 31.8032 0011791 51.3463 308.8828 15.27497771295244 XW-3 (CAS-9) 1 50466U 21131B 26036.49890688 .00000781 00000+0 25553-3 0 9996 2 50466 98.4999 129.6356 0005033 126.1483 234.0172 14.41206515216141 GREENCUBE (IO-117) 1 53109U 22080E 26036.20459760 -.00000003 00000+0 00000+0 0 9992 2 53109 70.1643 344.1411 0009180 316.9840 43.0102 6.42583171 83589 UMKA 1 (RS40S) 1 57172U 23091G 26036.49822299 .00010766 00000+0 51501-3 0 9993 2 57172 97.5245 95.7343 0012454 213.5430 146.5017 15.19098088144003 CUBESX-HSE 3 (RS42S) 1 57178U 23091N 26036.54210591 .00022206 00000+0 82298-3 0 9990 2 57178 97.5274 100.6992 0011380 192.1788 167.9178 15.27584933144308 MONITOR-3 (RS58S) 1 57180U 23091Q 26036.50173714 .00018630 00000+0 74899-3 0 9998 2 57180 97.5267 99.1416 0012081 197.7481 162.3336 15.24904453144200 MONITOR-4 (RS57S) 1 57182U 23091S 26036.48860378 .00018408 00000+0 73845-3 0 9999 2 57182 97.5262 99.0917 0012060 198.1998 161.8810 15.24981286144207 MONITOR-2 (RS39S) 1 57184U 23091U 26036.49877507 .00009799 00000+0 49120-3 0 9996 2 57184 97.5268 95.6338 0010887 204.1180 155.9545 15.17504679143971 SVYATOBOR 1 (RS60S) 1 57187U 23091X 26036.53655581 .00015603 00000+0 64385-3 0 9991 2 57187 97.5274 99.7449 0009728 187.9732 172.1352 15.24091720144246 VIZARD-METEO (RS38S) 1 57189U 23091Z 26036.49934448 .00027100 00000+0 89008-3 0 9994 2 57189 97.5262 103.6786 0008210 172.3115 187.8254 15.31513283144506 NANOZOND 1 (RS49S) 1 57190U 23091AA 26036.46922422 .00170839 00000+0 17713-2 0 9993 2 57190 97.5159 114.4057 0003405 167.7692 192.3649 15.64112812145221 POLYTECH-UNIVERSE 3 (R*) 1 57191U 23091AB 26036.54257039 .00009341 00000+0 46551-3 0 9990 2 57191 97.5243 95.1863 0014953 223.3344 136.6714 15.17681383143975 UTMN 2 (RS27S) 1 57203U 23091AP 26036.50370355 .00022096 00000+0 79736-3 0 9990 2 57203 97.5264 102.1310 0008783 177.3127 182.8162 15.28488506144402 KUZGTU 1 (RS47S) 1 57217U 23091AV 26036.42940287 .00020221 00000+0 77400-3 0 9997 2 57217 97.5249 99.7678 0011452 195.5035 164.5854 15.26532918144258 SONATE-2 1 59112U 24043Q 26035.92865080 .00041636 00000+0 77265-3 0 9994 2 59112 97.5360 179.3592 0008233 332.0238 28.0568 15.48801476107352 MESAT1 1 60209U 24125G 26036.52872140 .00057220 00000+0 98802-3 0 9992 2 60209 97.2483 252.0947 0013333 350.2835 9.8157 15.50717711 89080 OOV-CUBE (TUBSAT-30) 1 60240U 24128F 26036.34415925 .00004611 00000+0 35379-3 0 9990 2 60240 61.9970 325.0635 0056688 105.5880 255.1478 15.02014922 86305 COLIBRI-S (RS67S) 1 61746U 24199M 26036.57597090 .00033027 00000+0 77517-3 0 9992 2 61746 97.3204 269.6043 0011145 45.0227 315.1922 15.41912004117091 HORS 3 (RS81S) 1 61753U 24199U 26036.56789426 .00046700 00000+0 94783-3 0 9991 2 61753 97.3173 270.4933 0009556 50.6388 309.5706 15.46167454117166 HORS 4 (RS82S) 1 61754U 24199V 26036.56014244 .00053457 00000+0 99822-3 0 9997 2 61754 97.3147 271.0671 0009435 49.7130 310.4944 15.48552680117205 HORIZON (RS59S) 1 61757U 24199Y 26036.54320468 .00124855 00000+0 13767-2 0 9990 2 61757 97.3136 274.0953 0007802 36.5771 323.6018 15.62657573117394 ARCTICSAT 1 (RS74S) 1 61762U 24199AD 26036.54733093 .00104848 00000+0 12920-2 0 9998 2 61762 97.3150 273.7889 0007866 33.9002 326.2756 15.59822171117378 SIT-2086 1 61764U 24199AF 26036.56892257 .00034529 00000+0 70941-3 0 9996 2 61764 97.3169 271.2510 0008764 35.5464 324.6367 15.45883096114052 MORDOVIA-IOT (RS50S) 1 61765U 24199AG 26036.19443600 .16377816 26719-5 36725-3 0 9999 2 61765 97.2739 278.4782 0007770 210.1809 149.9048 16.46150586114513 RUZAEVKA 390 (RS44S) 1 61766U 24199AH 26036.28668939 .00313717 00000+0 17151-2 0 9997 2 61766 97.3049 276.2746 0005523 43.7248 316.4455 15.78991128114372 HYPERVIEW 1G (RS66S) 1 61772U 24199AP 26036.53268081 .00078377 00000+0 12092-2 0 9995 2 61772 97.3141 271.8587 0010913 46.7189 313.4974 15.53814273114104 ALTAIR (RS65S) 1 61779U 24199AW 26036.55463252 .00019545 00000+0 59049-3 0 9997 2 61779 97.3219 266.8632 0015350 61.9609 298.3184 15.34162747116914 ASRTU-1 (AO-123) 1 61781U 24199AY 26036.58129147 .00016631 00000+0 51569-3 0 9997 2 61781 97.3197 266.4693 0015884 62.9060 297.3800 15.33361488113743 TUSUR GO (RS78S) 1 61782U 24199AZ 26036.55968272 .00142506 00000+0 15745-2 0 9991 2 61782 97.3093 273.1342 0009350 46.4168 313.7865 15.62531921114199 SAMSAT-IONOSPHERE (RS7*) 1 61784U 24199BB 26036.54774089 .00051030 00000+0 10053-2 0 9991 2 61784 97.3166 270.2226 0012547 51.1723 309.0645 15.46979393117146 RTU MIREA 1 (RS51S) 1 61785U 24199BC 26036.58178141 .00054856 00000+0 10222-2 0 9990 2 61785 97.3160 270.6191 0012089 49.4930 310.7372 15.48574957114026 TEVEL2-4 1 63213U 25052D 26036.19364347 .00030300 00000+0 10586-2 0 9990 2 63213 97.4063 292.7262 0001955 167.4142 192.7147 15.29514182 49902 TEVEL2-5 1 63214U 25052E 26036.13679975 .00026158 00000+0 91785-3 0 9998 2 63214 97.4062 292.6486 0001909 168.1679 191.9607 15.29403533 49898 TEVEL2-6 1 63215U 25052F 26036.14572493 .00025928 00000+0 91101-3 0 9993 2 63215 97.4064 292.6438 0001916 170.1673 189.9605 15.29361345 49892 TEVEL2-1 1 63217U 25052H 26036.13547139 .00025866 00000+0 91958-3 0 9994 2 63217 97.4039 292.3974 0001531 191.9962 168.1242 15.28978078 49884 TEVEL2-3 1 63218U 25052J 26036.46096330 .00030019 00000+0 10645-2 0 9992 2 63218 97.4037 292.7306 0001474 188.6891 171.4324 15.29029419 49937 TEVEL2-2 1 63219U 25052K 26036.13616517 .00025580 00000+0 90943-3 0 9999 2 63219 97.4041 292.3988 0001499 192.9491 167.1711 15.28979420 49887 TEVEL2-9 1 63237U 25052AD 26035.69602024 .00019633 00000+0 73479-3 0 9994 2 63237 97.4104 291.5858 0004614 247.8284 112.2465 15.27335107 49778 TEVEL2-7 1 63238U 25052AE 26035.97803289 .00023651 00000+0 88881-3 0 9990 2 63238 97.4104 291.8275 0004765 246.3593 113.7146 15.27159757 49811 TEVEL2-8 1 63239U 25052AF 26036.44322773 .00027219 00000+0 10220-2 0 9993 2 63239 97.4102 292.2716 0004668 244.8294 115.2461 15.27160470 49886 HADES-ICM 1 63492U 25052BN 26035.69655488 .00097873 00000+0 18033-2 0 9995 2 63492 97.4006 295.1501 0003690 214.9443 145.1566 15.48794083 50024 INNOSAT 16 (RS92S7) 1 64878U 25155C 26036.27903585 .00010633 00000+0 44604-3 0 9990 2 64878 97.4415 4.1230 0008870 295.4522 64.5796 15.23636602 60576 GEOSCAN 6 (RS92S6) 1 64879U 25155D 26036.28864536 .00018477 00000+0 69706-3 0 9998 2 64879 97.4415 4.7388 0005863 291.0002 69.0609 15.27078662 60619 GEOSCAN 1 (RS92S1) 1 64880U 25155E 26036.26723275 .00020058 00000+0 74806-3 0 9997 2 64880 97.4414 4.7726 0005798 291.8376 68.2246 15.27441266 60617 239ALFEROV (RS61S) 1 64881U 25155F 26036.25693151 .00026774 00000+0 95934-3 0 9992 2 64881 97.4421 4.9649 0005270 292.0110 68.0569 15.28703079 60627 GEOSCAN 2 (RS92S2) 1 64890U 25155Q 26036.48253994 .00019893 00000+0 73497-3 0 9998 2 64890 97.4412 5.0838 0004975 271.7454 88.3215 15.27756797 60655 GEOSCAN 5 (RS92S5) 1 64891U 25155R 26036.47053850 .00025764 00000+0 91364-3 0 9994 2 64891 97.4413 5.2636 0004193 303.1999 56.8838 15.29055173 60665 GEOSCAN 4 (RS92S4) 1 64892U 25155S 26036.46495197 .00026431 00000+0 93459-3 0 9997 2 64892 97.4416 5.2766 0004220 304.4557 55.6283 15.29144227 60668 GEOSCAN 3 (RS92S3) 1 64893U 25155T 26036.46812654 .00030648 00000+0 10471-2 0 9996 2 64893 97.4410 5.4145 0003844 309.7640 50.3261 15.30234617 60672 INNOSAT 3 (RS92S0) 1 64894U 25155U 26036.46424278 .00052947 00000+0 15924-2 0 9992 2 64894 97.4385 5.8523 0002847 323.7971 36.3078 15.34202683 60709